Weather History for Highgate, VT

Change the Weather History Date:

Tuesday, November 20, 2012

  Actual Average (KPBG) Record (KPBG)
Temperature  
Mean Temperature 33 °F 35 °F  
Max Temperature 39 °F 44 °F 68 °F (1953)
Min Temperature 27 °F 26 °F 11 °F (1986)
Degree Days  
Heating Degree Days 32 30  
Month to date heating degree days 527  
Since 1 July heating degree days 1310  
Moisture  
Dew Point 28 °F    
Average Humidity 84    
Maximum Humidity 94    
Minimum Humidity 71    
Precipitation  
Precipitation 0.00 in - 1.89 in (1948)
Month to date precipitation  
Year to date precipitation  
Sea Level Pressure  
Sea Level Pressure 30.21 in    
Wind  
Wind Speed 2 mph (East)    
Max Wind Speed 6 mph    
Max Gust Speed -    
Visibility 9 miles    
Events      
T = Trace of Precipitation, MM = Missing Value Source: NWS Daily Summary

Daily Weather History Graph

Daily Weather History Graph

Search for Another Location

Airport:

Trip Planner

Search our weather history database for the weather conditions in past years. The results will help you decide how hot, cold, wet, or windy it might be!

Date:

Astronomy

Nov. 20, 2012 Rise Set
Actual Time 6:57 AM EST 4:18 PM EST
Civil Twilight 6:24 AM EST 4:50 PM EST
Nautical Twilight 5:49 AM EST 5:26 PM EST
Astronomical Twilight 5:14 AM EST 6:01 PM EST
Moon 12:21 PM EST (11/20) 11:58 PM EST (11/20)
Length of Visible Light 10h 26m
Length of Day
9h 21m
Waxing Crescent, 51% of the Moon is Illuminated
Nov 20
Waxing Crescent
Nov 28
Full
Dec 6
Last Quarter
Dec 13
New
Dec 20
First Quarter

Hourly Weather History & Observations

Time (EST) Temp. Windchill Dew Point Humidity Pressure Visibility Wind Dir Wind Speed Gust Speed Precip Events Conditions
12:15 AM 27.1 °F 23.2 °F 24.6 °F 90% 30.27 in 10.0 mi SE 3.5 mph - N/A   Clear
12:35 AM 27.1 °F 23.2 °F 24.1 °F 88% 30.26 in 10.0 mi ESE 3.5 mph - N/A   Clear
12:55 AM 27.1 °F - 23.9 °F 88% 30.26 in 10.0 mi Calm Calm - N/A   Clear
1:15 AM 27.1 °F 23.2 °F 23.9 °F 88% 30.25 in 10.0 mi SE 3.5 mph - N/A   Clear
1:35 AM 27.1 °F 21.8 °F 23.9 °F 88% 30.25 in 10.0 mi SE 4.6 mph - N/A   Clear
1:55 AM 27.1 °F 23.2 °F 24.3 °F 89% 30.25 in 10.0 mi SE 3.5 mph - N/A   Clear
2:15 AM 27.1 °F 23.2 °F 24.4 °F 90% 30.25 in 10.0 mi SE 3.5 mph - N/A   Clear
2:35 AM 27.1 °F 23.2 °F 24.6 °F 90% 30.26 in 10.0 mi ESE 3.5 mph - N/A   Clear
2:55 AM 27.1 °F - 24.4 °F 90% 30.26 in 10.0 mi Calm Calm - N/A   Clear
3:15 AM 27.1 °F 23.2 °F 24.4 °F 90% 30.25 in 10.0 mi SE 3.5 mph - N/A   Clear
3:35 AM 27.1 °F - 24.6 °F 90% 30.25 in 10.0 mi Calm Calm - N/A   Clear
3:55 AM 27.1 °F - 24.3 °F 89% 30.25 in 10.0 mi Calm Calm - N/A   Clear
7:35 AM 27.1 °F - 24.3 °F 89% 30.23 in 10.0 mi Calm Calm - N/A   Clear
7:55 AM 27.1 °F 23.2 °F 24.1 °F 88% 30.24 in 10.0 mi ESE 3.5 mph - N/A   Clear
8:15 AM 28.2 °F - 24.8 °F 87% 30.24 in 10.0 mi Calm Calm - N/A   Clear
8:35 AM 29.7 °F 26.1 °F 25.5 °F 85% 30.24 in 10.0 mi ESE 3.5 mph - N/A   Clear
8:55 AM 32.0 °F 28.7 °F 27.1 °F 82% 30.24 in 10.0 mi SE 3.5 mph - N/A   Clear
9:15 AM 32.0 °F - 26.4 °F 80% 30.23 in 10.0 mi Calm Calm - N/A   Clear
9:35 AM 33.1 °F - 26.2 °F 76% 30.23 in 10.0 mi Calm Calm - N/A   Clear
9:55 AM 34.2 °F - 27.3 °F 76% 30.23 in 10.0 mi Calm Calm - N/A   Clear
10:15 AM 34.5 °F - 26.6 °F 73% 30.23 in 10.0 mi Calm Calm - N/A   Clear
10:35 AM 36.9 °F - 29.1 °F 74% 30.23 in 10.0 mi Calm Calm - N/A   Clear
10:55 AM 36.1 °F - 29.7 °F 77% 30.23 in 10.0 mi Calm Calm - N/A   Clear
11:15 AM 36.9 °F - 30.4 °F 77% 30.22 in 10.0 mi Calm Calm - N/A   Clear
11:35 AM 36.9 °F - 29.8 °F 76% 30.21 in 10.0 mi Calm Calm - N/A   Clear
11:55 AM 36.9 °F 34.3 °F 30.0 °F 76% 30.21 in 10.0 mi NW 3.5 mph - N/A   Clear
12:15 PM 36.9 °F 34.3 °F 30.6 °F 78% 30.20 in 10.0 mi WNW 3.5 mph - N/A   Clear
12:35 PM 36.9 °F - 30.0 °F 76% 30.20 in 10.0 mi Calm Calm - N/A   Clear
12:55 PM 36.9 °F 34.3 °F 30.0 °F 76% 30.19 in 10.0 mi North 3.5 mph - N/A   Clear
1:15 PM 36.9 °F - 30.2 °F 77% 30.18 in 10.0 mi Calm Calm - N/A   Clear
1:35 PM 37.8 °F 35.3 °F 31.1 °F 77% 30.18 in 10.0 mi North 3.5 mph - N/A   Scattered Clouds
1:55 PM 38.3 °F 34.8 °F 30.4 °F 73% 30.17 in 10.0 mi North 4.6 mph - N/A   Scattered Clouds
2:15 PM 39.2 °F 35.0 °F 30.9 °F 72% 30.17 in 10.0 mi North 5.8 mph - N/A   Mostly Cloudy
2:35 PM 39.2 °F 37.0 °F 30.7 °F 72% 30.16 in 10.0 mi NNW 3.5 mph - N/A   Mostly Cloudy
2:55 PM 39.4 °F 37.2 °F 30.7 °F 71% 30.15 in 10.0 mi NNW 3.5 mph - N/A   Mostly Cloudy
3:35 PM 37.6 °F 35.1 °F 29.8 °F 74% 30.16 in 10.0 mi NNW 3.5 mph - N/A   Mostly Cloudy
3:55 PM 36.9 °F - 29.8 °F 76% 30.16 in 10.0 mi Calm Calm - N/A   Mostly Cloudy
4:15 PM 36.9 °F - 30.2 °F 77% 30.17 in 10.0 mi Calm Calm - N/A   Scattered Clouds
4:35 PM 36.0 °F - 30.4 °F 80% 30.17 in 10.0 mi Calm Calm - N/A   Scattered Clouds
4:55 PM 34.3 °F - 29.5 °F 82% 30.17 in 10.0 mi Calm Calm - N/A   Mostly Cloudy
5:15 PM 34.3 °F - 29.8 °F 84% 30.18 in 10.0 mi Calm Calm - N/A   Overcast
5:35 PM 34.3 °F - 30.2 °F 85% 30.18 in 10.0 mi Calm Calm - N/A   Scattered Clouds
5:55 PM 32.7 °F - 29.3 °F 87% 30.18 in 7.0 mi Calm Calm - N/A   Scattered Clouds
6:15 PM 32.0 °F - 28.9 °F 88% 30.18 in 7.0 mi Calm Calm - N/A   Overcast
6:35 PM 32.7 °F - 29.8 °F 89% 30.19 in 7.0 mi Calm Calm - N/A   Mostly Cloudy
6:55 PM 32.0 °F - 28.8 °F 88% 30.19 in 7.0 mi Calm Calm - N/A   Scattered Clouds
7:15 PM 32.0 °F - 29.3 °F 90% 30.18 in 7.0 mi Calm Calm - N/A   Overcast
7:35 PM 32.0 °F - 29.3 °F 90% 30.18 in 7.0 mi Calm Calm - N/A   Overcast
7:55 PM 32.0 °F - 30.0 °F 92% 30.18 in 7.0 mi Calm Calm - N/A   Scattered Clouds
8:15 PM 32.0 °F - 29.5 °F 90% 30.18 in 7.0 mi Calm Calm - N/A   Scattered Clouds
8:35 PM 32.0 °F - 30.0 °F 92% 30.19 in 5.0 mi Calm Calm - N/A   Scattered Clouds
8:55 PM 32.0 °F - 30.0 °F 92% 30.19 in 5.0 mi Calm Calm - N/A   Scattered Clouds
9:15 PM 31.8 °F - 29.7 °F 92% 30.19 in 5.0 mi Calm Calm - N/A   Mostly Cloudy
9:35 PM 30.2 °F - 28.2 °F 92% 30.19 in 4.0 mi Calm Calm - N/A   Scattered Clouds
10:15 PM 29.7 °F - 28.0 °F 94% 30.18 in 4.0 mi Calm Calm - N/A   Scattered Clouds
10:35 PM 29.7 °F 26.1 °F 28.2 °F 94% 30.18 in 3.0 mi SE 3.5 mph - N/A   Scattered Clouds
10:55 PM 29.7 °F - 28.0 °F 94% 30.17 in 4.0 mi Calm Calm - N/A   Scattered Clouds
11:15 PM 29.7 °F - 28.2 °F 94% 30.18 in 5.0 mi Calm Calm - N/A   Clear
11:35 PM 30.0 °F - 28.6 °F 94% 30.18 in 5.0 mi Calm Calm - N/A   Scattered Clouds
11:55 PM 28.4 °F - 26.6 °F 93% 30.18 in 3.0 mi Calm Calm - N/A   Overcast